Regional Weather Roundup
Issued by NWS

Home | Current Version | Previous Version | Graphics & Text | Print | Product List | Glossary On
Versions: 1 2 3 4 5 6 7 8 9 10 11 12 13 14 15 16 17 18 19 20 21 22 23 24 25 26 27 28 29 30 31 32 33 34 35 36 37 38 39 40 41 42 43 44 45 46 47 48 49 50
000
ASUS43 KMPX 011310
RWRMN
WEATHER ROUNDUP FOR MINNESOTA
NATIONAL WEATHER SERVICE TWIN CITIES/CHANHASSEN MN
800 AM CDT SAT AUG 01 2015


NOTE: "FAIR" INDICATES FEW OR NO CLOUDS BELOW 12,000 FEET WITH NO
SIGNIFICANT WEATHER AND/OR OBSTRUCTIONS TO VISIBILITY. N/A MEANS
CURRENT SKY AND/OR WEATHER CONDITIONS ARE NOT AVAILABLE.

MNZ060>063-068>070-011400-
   Twin Cities Metro

CITY           SKY/WX    TMP DP  RH WIND       PRES   REMARKS
TWIN CITIES    MOSUNNY   72  60  66 CALM      29.97R
ST PAUL        SUNNY     69  63  81 CALM      29.97R
CRYSTAL        SUNNY     71  61  70 CALM      29.96R
BLAINE         SUNNY     70  64  83 CALM      29.97R
LAKEVILLE      SUNNY     66  61  82 CALM      29.97S
EDEN PRAIRIE   SUNNY     67  63  87 CALM      29.96S
SOUTH ST PAUL  SUNNY     69  59  70 CALM      29.96S
LAKE ELMO      FAIR      64  63  94 CALM      29.98S
$$
MNZ001>005-007-008-013>017-022>024-027-028-011400-
   Northwest Minnesota

CITY           SKY/WX    TMP DP  RH WIND       PRES   REMARKS
BEMIDJI        SUNNY     60  52  74 W5        29.96F
HALLOCK        SUNNY     57  54  88 CALM      29.92F
ROSEAU         SUNNY     61  55  82 W3        29.92S
WARROAD        SUNNY     61  55  82 W7        29.92S
THIEF RVR FALL SUNNY     61  54  77 CALM      29.95S
CROOKSTON      SUNNY     59  55  88 CALM        N/A
FOSSTON        SUNNY     59  54  82 CALM      29.97S
DETROIT LAKES  MOSUNNY   63  59  88 CALM      29.99F
MOORHEAD       MOSUNNY   61  57  88 S3        29.98S
PARK RAPIDS    SUNNY     61  55  81 W3        29.97F
MAHNOMEN       FAIR      58  55  89 S6        29.97S
$$
MNZ006-009>011-018-025>026-011400-
   North Central Minnesota

CITY           SKY/WX    TMP DP  RH WIND       PRES   REMARKS
BAUDETTE       SUNNY     62  53  72 W5        29.91S
FLAG ISLAND    SUNNY     64  54  68 W12       29.88S
INTL FALLS     SUNNY     61  54  77 W5        29.90S
WASKISH        SUNNY     66  59  77 SW6       29.93S
BIG FORK       SUNNY     63  55  77 CALM      29.94S
LONGVILLE      SUNNY     57  57 100 CALM      29.96S
GRAND RAPIDS   SUNNY     64  54  68 W6        29.95F
CRANE LAKE     SUNNY     54  54 100 SE1       29.92S
ORR            SUNNY     57  52  82 CALM      29.90S
COOK           SUNNY     57  54  88 W5        29.93S
WALKER         FAIR      61  53  76 W3        29.96F
$$
MNZ012-019>021-037-011400-
   Northeast Minnesota

CITY           SKY/WX    TMP DP  RH WIND       PRES   REMARKS
DULUTH         SUNNY     65  53  65 W6        29.94S
ELY            SUNNY     59  52  77 W5        29.91F
HIBBING        SUNNY     63  54  72 W5        29.93F
EVELETH        SUNNY     59  52  77 W3        29.93F
DULUTH HARBOR  SUNNY     63  55  77 SW5       29.93F
TWO HARBORS    SUNNY     64  55  72 W5        29.91S
SILVER BAY     SUNNY     64  52  63 CALM      29.90R
GRAND MARAIS     N/A     67  55  65 VRB7      29.85F
G MARAIS ARPRT   N/A     61  52  72 W6        29.90S
$$
MNZ029>031-032-039>041-046>048-054>057-064-011400-
   West Central Minnesota

CITY           SKY/WX    TMP DP  RH WIND       PRES   REMARKS
FERGUS FALLS   SUNNY     63  61  94 CALM      29.98S
WHEATON        SUNNY     64  61  88 CALM      29.99S
MORRIS         SUNNY     64  61  88 CALM      29.97S
ALEXANDRIA     MOSUNNY   66  64  93 CALM      30.00S
ELBOW LAKE     FAIR      65  62  90 CALM      29.98F
WADENA         MOSUNNY   61  57  88 W5        29.98R
GLENWOOD       SUNNY     68  63  83 CALM      30.00R
APPLETON       SUNNY     64  61  88 CALM      29.98R
BENSON         SUNNY     64  61  88 CALM      29.98S
ORTONVILLE     SUNNY     66  63  88 CALM      29.98S
MADISON        SUNNY     64  61  88 CALM      29.99R
WILLMAR        FAIR      66  64  94 CALM      29.99S
$$
MNZ033>034-036-042>043-049>051-058-059-011400-
   Central Minnesota

CITY           SKY/WX    TMP DP  RH WIND       PRES   REMARKS
ST CLOUD       MOSUNNY   66  60  81 NW3       29.98R
SAUK CENTRE    FAIR      61  59  93 CALM      29.99S
PAYNESVILLE    SUNNY     60  59  97 CALM      29.99S
AITKIN         SUNNY     64  55  72 W5        29.95S
PINE RIVER     SUNNY     61  54  77 CALM      30.00S
BRAINERD       SUNNY     62  58  86 CALM      29.97F
STAPLES        MOSUNNY   63  55  77 CALM      29.98S
LONG PRAIRIE   LGT RAIN  63  59  88 CALM      29.98F
LITTLE FALLS   MOSUNNY   61  55  82 CALM      29.97S
LITCHFIELD     SUNNY     70  64  83 CALM      29.99R
BUFFALO        SUNNY     68  60  75 CALM      29.99R
MAPLE LAKE     SUNNY     68  64  88 N5        29.99S
$$
MNZ037-044-045-052-053-011400-
   East Central Minnesota

CITY           SKY/WX    TMP DP  RH WIND       PRES   REMARKS
PRINCETON      SUNNY     66  61  82 CALM      29.97S
MORA           SUNNY     61  57  88 CALM      29.98S
CAMBRIDGE      SUNNY     70  57  64 CALM      29.95S
RUSH CITY      SUNNY     62  59  88 CALM      29.97R
MOOSE LAKE     SUNNY     59  54  82 CALM      29.95S
HINCKLEY       FAIR      61  59  94 CALM      29.96S
CLOQUET        SUNNY     64  52  63 W6        29.95S
MCGREGOR       SUNNY     63  55  77 CALM      29.96S
$$
MNZ071>073-080-081-089-090-097-098-011400-
   Southwest Minnesota

CITY           SKY/WX    TMP DP  RH WIND       PRES   REMARKS
MONTEVIDEO     SUNNY     70  63  78 CALM      30.00R
GRANITE FALLS  SUNNY     63  60  91 CALM      30.00S
CANBY          SUNNY     67  62  83 CALM      30.00S
MARSHALL       SUNNY     70  63  78 W6        30.01S
REDWOOD FALLS  SUNNY     67  60  78 W5        29.99R
OLIVIA         SUNNY     61  57  88 CALM      29.98R
PIPESTONE      SUNNY     66  64  94 CALM      30.03S
WINDOM         SUNNY     66  63  88 W6        30.03R
WORTHINGTON    SUNNY     68  61  77 SW8       30.04R
JACKSON        SUNNY     70  64  83 W7        30.04R
TRACY          SUNNY     68  66  94 CALM      30.01S
SLAYTON        SUNNY     69  66  92 CALM      30.04S
$$
MNZ065>067-074>077-082>085-091>093-011400-
   South Central Minnesota

CITY           SKY/WX    TMP DP  RH WIND       PRES   REMARKS
MANKATO        SUNNY     66  59  77 W8        29.99R
NEW ULM        SUNNY     64  63  94 W9        29.99R
ST JAMES       SUNNY     70  64  83 SW6       30.01S
FAIRMONT       SUNNY     68  57  68 W8        30.02R
GLENCOE        SUNNY     65  63  91 CALM      29.97S
FARIBAULT      SUNNY     66  63  88 W5        29.98S
OWATONNA       SUNNY     64  61  88 SW6       29.99R
WASECA         SUNNY     63  59  88 W5        30.01R
ALBERT LEA     SUNNY     68  61  77 W6        30.01R
$$
MNZ078>079-086>088-094>096-011400-
   Southeast Minnesota

CITY           SKY/WX    TMP DP  RH WIND       PRES   REMARKS
ROCHESTER      SUNNY     66  61  84 W12       30.00R
RED WING       SUNNY     68  63  83 CALM      29.96S
STANTON        SUNNY     65  60  83 CALM      29.96S
DODGE CENTER   SUNNY     64  61  88 W9        29.99R
WINONA         SUNNY     70  63  78 CALM      29.97S
AUSTIN         SUNNY     70  61  73 W7        30.00R
PRESTON        SUNNY     64  58  79 SW5       30.00S
$$
ABBREVIATIONS USED IN REMARKS
   TC - TEMPERATURES IN CELSIUS
  WCI - WIND CHILL INDEX
   HX - HEAT INDEX
  VSB - VISIBILITY
$$


USA.gov is the U.S. government's official web portal to all federal, state and local government web resources and services.